Regional Weather Roundup
Issued by NWS

Home | Current Version | Previous Version | Text Only | Print | Product List | Glossary On
Versions: 1 2 3 4 5 6 7 8 9 10 11 12 13 14 15 16 17 18 19 20 21 22 23 24 25 26 27 28 29 30 31 32 33 34 35 36 37 38 39 40 41 42 43 44 45 46 47 48 49 50
000
ASUS43 KBIS 301410
RWRND

NORTH DAKOTA REGIONAL WEATHER ROUNDUP
NATIONAL WEATHER SERVICE BISMARCK ND
900 AM CDT MON MAY 30 2016

NOTE: "FAIR" INDICATES FEW OR NO CLOUDS BELOW 12,000 FEET WITH NO
SIGNIFICANT WEATHER AND/OR OBSTRUCTIONS TO VISIBILITY.


NDZ001>003-009>011-017-301500-
NORTHWEST NORTH DAKOTA

CITY           SKY/WX    TMP DP  RH WIND       PRES   REMARKS
WILLISTON      CLOUDY    56  46  69 SW6       29.91R
MINOT          SUNNY     67  52  58 CALM      29.89S
MINOT AFB      MOSUNNY   63  49  59 NE1       29.88S
$$

NDZ018>021-031>035-040>046-301500-
SOUTHWEST NORTH DAKOTA

CITY           SKY/WX    TMP DP  RH WIND       PRES   REMARKS
BISMARCK       SUNNY     63  56  78 E6        29.91F
DICKINSON      CLOUDY    60  51  72 SE8       29.88F
GARRISON         N/A     61  53  75 S8        29.90F
HETTINGER ARPT CLOUDY    64  55  72 E7        29.90F
$$

NDZ004>008-012>016-024-026-027-054-301500-
NORTHEAST NORTH DAKOTA

CITY           SKY/WX    TMP DP  RH WIND       PRES   REMARKS
GRAND FORKS    PTSUNNY   67  52  58 W9        29.93R THUNDER
GRND FRKS AFB  PTSUNNY   64  52  63 SE2       29.92R
DEVILS LAKE    SUNNY     65  53  65 SW6       29.91F
$$

NDZ022-023-025-028>030-036>039-047>053-301500-
SOUTHEAST NORTH DAKOTA

CITY           SKY/WX    TMP DP  RH WIND       PRES   REMARKS
FARGO          SUNNY     67  52  58 S8        29.93F
JAMESTOWN      SUNNY     68  55  63 S6        29.91F
$$





USA.gov is the U.S. government's official web portal to all federal, state and local government web resources and services.